Montana Department of Transportation

Main Content

Accidents and Incidents Report

Hourly Weather Roundup

ASUS45 KTFX 271019
RWRMT 
MONTANA HOURLY WEATHER ROUNDUP
NATIONAL WEATHER SERVICE GREAT FALLS MT
319 AM MST TUE JAN 27 2015

NOTE: "FAIR" INDICATES FEW OR NO CLOUDS BELOW 12000 FEET WITH NO
SIGNIFICANT WEATHER AND/OR OBSTRUCTIONS TO VISIBILITY.

* THESE STATIONS ARE NOT UNDER NWS QUALITY CONTROL. THEY DO NOT
   REPORT WEATHER SUCH AS PRECIPITATION OR FOG.

MTZ001.007-043-271100-
WEST OF THE DIVIDE
CITY           SKY/WX    TMP DP  RH WIND       PRES   REMARKS
KALISPELL      FOG       19  18  96 CALM      30.01S VSB 3/4  
MISSOULA       FOG       23  23 100 CALM      30.08R 
BUTTE          PTCLDY    27  25  92 CALM      30.09S 
MULLAN PASS    PTCLDY    45  21  38 SW8       30.05S 
* ANACONDA     PTCLDY    37  25  62 SW5        N/A   WCI  33 
* ESSEX        N/A       26  24  92 N1         N/A   
* EUREKA APT   PTCLDY    28  25  89 CALM      30.00S 
* HAMILTON APT PTCLDY    41  28  60 S8        30.05S 
* LIBBY APT    CLEAR     25  23  92 CALM      30.04R VSB M1/4 
* LINCOLN      N/A       27  23  85 NE2        N/A   
* LOOKOUT PASS N/A       38  30  73 SE2        N/A   
* POLSON       N/A       39  30  70 SE1        N/A   
* RONAN APT    MOCLDY    30  28  92 N/A        N/A   
* SEELEY LAKE  N/A       22  20  92 NE1        N/A   
* THOMP F APT  PTCLDY    38  25  60 NE3        N/A   
--------------------------------

MTZ008-052.055-271100-
SOUTHWEST MONTANA
CITY           SKY/WX    TMP DP  RH WIND       PRES   REMARKS
BOZEMAN        PTCLDY    27  25  92 S3        30.07R 
DILLON         CLEAR     36  27  70 S12       30.10S WCI  28 
* W YELLOWSTON CLEAR     18  16  92 N/A        N/A   
* THREE FORKS  PTCLDY    27  27 100 N/A        N/A   
* BOULDER HILL N/A       39  23  53 S8         N/A   WCI  33 
* MONIDA PASS  N/A       28  23  81 E9         N/A   WCI  19 
* RAYNOLDS PAS N/A       27  15  61 E1G7       N/A   
* WHITEHALL    N/A       33  25  72 NW5G10     N/A   WCI  28 
* WISE RIVER   N/A       25  22  88 W5         N/A   WCI  19 
--------------------------------

MTZ009.010-012-014-046-048-049-054-271100-
EAST SLOPES AND CENTRAL MONTANA
CITY           SKY/WX    TMP DP  RH WIND       PRES   REMARKS
GREAT FALLS    CLOUDY    52  27  38 S13       29.91S 
HELENA         PTCLDY    34  28  79 CALM      30.03F 
MALMSTROM AFB  MOCLDY    54  28  37 SW23      29.90S 
* CONRAD       CLOUDY    43  28  56 S7         N/A   
* DEARBORN     N/A       47  29  50 S6G11      N/A   
* EAST GLACIER N/A       49  20  32 W15        N/A   
* MONARCH      N/A       51  19  28 SW13G19    N/A   
* PENDROY      N/A       56  21  26 S6G11      N/A   
* ROGERS PASS  N/A       46  23  40 SE7G14     N/A   
* SWEET GRASS  N/A       51  24  35 SW19       N/A   
* WHITE SULPH  N/A       40  25  55 E3G8       N/A   
--------------------------------

MTZ011-013-016-021-035-040-045-047-050-051-271100-
NORTH CENTRAL MONTANA
CITY           SKY/WX    TMP DP  RH WIND       PRES   REMARKS
HAVRE          MOCLDY    39  30  70 SW12      29.84R WCI  32 
LEWISTOWN      PTCLDY    46  28  50 SW14      29.92F 
* N BAR RANCH  CLEAR     48  18  30 W8        29.94S 
* CHINOOK      MOCLDY    34  30  85 E5        29.83R WCI  29 
* CHESTER      N/A       32  27  82 N/A        N/A   
* DENTON       N/A       49  26  41 SW1        N/A   
* GEYSER       N/A       53  21  29 W9         N/A   
* JUDITH GAP   N/A       55  27  34 W25G30     N/A   
* LOMA         N/A       48  31  52 SW12G17    N/A   
--------------------------------

MTZ017.020-022.027-061-062-271100-
NORTHEAST MONTANA
CITY           SKY/WX    TMP DP  RH WIND       PRES   REMARKS
GLASGOW        CLOUDY    34  30  85 SE7       29.83S WCI  28 
GLENDIVE       PTCLDY    32  28  85 S5        29.87S WCI  27 
JORDAN         PTCLDY    30  27  89 CALM      29.85S 
SIDNEY         MOCLDY    30  28  92 CALM      29.85F 
WOLF POINT     CLOUDY    28  27  96 W3        29.84S 
* BEAVER HILL  N/A       42  31  65 SW11G16    N/A   
* CIRCLE       N/A       41  34  76 SW4        N/A   
* LINDSAY DVD  N/A       49  31  50 W8         N/A   
* NAVAJO       N/A       35  31  85 E2         N/A   
* PLENTYWOOD A CLOUDY    34  34 100 E5        29.83S WCI  29 
* POPLAR APT   CLOUDY    30  28  92 N/A       29.83F 
* SACO         N/A       31  30  96 W1         N/A   
* SCOBEY APT   CLOUDY    32  28  85 SE5        N/A   WCI  27 
--------------------------------

MTZ028.042-056.058-271100-
SOUTHCENTRAL AND SOUTHEAST MONTANA
CITY           SKY/WX    TMP DP  RH WIND       PRES   REMARKS
BAKER          PTCLDY    36  28  73 N5        29.90S WCI  32 
BILLINGS       PTCLDY    52  27  38 SW25G32   29.95F 
LIVINGSTON     PTCLDY    54  25  33 SW29G37   30.01R 
MILES CITY     PTCLDY    36  28  73 S6        29.90R WCI  31 
* BIG TIMBER A PTCLDY    46  25  44 SW10      30.02F 
* FORSYTH APT  CLEAR     46  28  50 CALM      29.90S 
* LAUREL APT   PTCLDY    45  27  49 SW14       N/A   
* ROUNDUP APT  PTCLDY    46  27  48 S14G20     N/A   
* ALZADA       N/A       39  29  67 W4         N/A   
* HYSHAM       N/A       48  24  39 W6G11      N/A   
* LAME DEER    N/A       54  24  31 W13        N/A   
* REED POINT   N/A       28  27  96 E1         N/A   
* ROSCOE HILL  N/A       55  11  17 NE5        N/A   
--------------------------------

REGIONAL REPORTS...DAKOTAS
CITY           SKY/WX    TMP DP  RH WIND       PRES   REMARKS
WILLISTON      MOCLDY    27  25  92 CALM      29.84F 
DICKINSON      PTCLDY    30  27  89 S6        29.84F WCI  24 
BEACH          CLEAR     41  32  70 SW8       29.86F 
CROSBY         CLEAR     32  32 100 SW8       29.82F WCI  25 
TIOGA          CLEAR     28  28 100 CALM      29.87F 
WATFORD CITY   CLEAR     28  28 100 CALM      29.84S 
BISMARCK       CLEAR     30  28  92 E8        29.93F WCI  22 
GRAND FORKS    FOG       27  25  92 S7        30.04F VSB 1/2  WCI  19 
FARGO          FOG       28  25  89 E5        30.06S VSB 1 1/4 WCI  22 
BUFFALO SD     MOCLDY    43  30  60 W12       29.85S 
RAPID CITY     PTCLDY    45  27  49 W9        29.95F 
--------------------------------

REGIONAL REPORTS...WYOMING/IDAHO/WASHINGTON
CITY           SKY/WX    TMP DP  RH WIND       PRES   REMARKS
GILLETTE       CLEAR     46  28  50 SW14      30.00S 
SHERIDAN       PTCLDY    37  25  62 CALM      29.97F 
CODY           PTCLDY    36  25  64 N3        30.07F 
YELLOWSTONE LA PTCLDY    10   7  88 CALM      30.29S 
SALMON         CLOUDY   N/A N/A N/A CALM      30.19F VSB M1/4 
MULLAN PASS    PTCLDY    45  21  38 SW8       30.05S 
SAND POINT     FOG      N/A N/A N/A CALM      30.03S VSB M1/4 
SPOKANE        FOG       34  32  92 E6        29.99S VSB 1    WCI  29 
--------------------------------

REGIONAL REPORTS...ALBERTA
CITY           SKY/WX    TMP DP  RH WIND       PRES   REMARKS
CALGARY        FAIR      39  27  62 SW6       29.74S WCI  35 
LETHBRIDGE     PTCLDY    39  28  65 SW13      29.81S WCI  31 
MEDICINE HAT   CLEAR     39  32  76 SW9       29.77R WCI  33 
EDMONTON       CLOUDY    34  30  85 VRB2      29.75F 
WATERTON GATE  N/A       52  19  27 SW18G29    N/A   
CARDSTON       N/A       50  25  38 W5         N/A   
MILK RIVER     N/A       39  27  62 W3         N/A   
--------------------------------

REGIONAL REPORTS...SASKATCHEWAN
CITY           SKY/WX    TMP DP  RH WIND       PRES   REMARKS
SWIFT CURRENT  CLEAR     41  32  70 SW16      29.73S 
REGINA         N/A       28  27  96 E9        29.80F WCI  19 
VAL MARIE      N/A       28  27  96 E2         N/A   
ASSINIBOIA     N/A       32  30  92 SE8        N/A   WCI  25 
CORONACH       N/A       32  30  92 E7         N/A   WCI  25 

--------------------------------